[[{"header":{"parameterUnit":"m.s-1","parameterCategory":1,"la1":30.2991,"la2":30.254,"lo1":-89.0895,"lo2":-89.0444,"dy":0.0017,"dx":0.0017,"nx":28,"ny":28,"refTime":"2025-03-16T21:00:00:Z","depth":0,"parameterNumber":2,"parameterNumberName":"U-component_of_WINDS"},"data":[0,0,0,0,0,0,0,0,0,0,0,0,0,0,0,0,0,0,0,0,0,0,0,0,0,0,0,0,0,0,0,0,0,0,0,0,0,0,0,0,0,0,0,0,0,0,0,0,0,0,0,0,0,0,0,0,0,0,1.7936,1.7937,0,1.7997,1.7998,1.7998,1.8007,1.8006,1.8006,1.8005,1.8068,1.807,1.8072,0,0,0,0,0,0,0,0,0,0,0,0,0,1.7828,1.783,1.7936,1.7937,1.7938,1.7997,1.7998,1.7999,1.8007,1.8006,1.8006,1.8005,1.8067,1.807,1.8073,0,0,0,0,0,0,0,0,0,0,0,0,0,1.7881,1.7831,1.7936,1.7949,1.7951,1.7997,1.7998,1.7999,1.8007,1.8006,1.8005,1.8005,1.8066,1.807,1.8073,1.811,0,0,1.8083,1.8084,0,0,0,0,0,0,0,0,1.7878,1.7885,1.7946,1.7948,1.795,1.7994,1.7983,1.8036,1.8007,1.7986,1.8005,1.8004,1.8044,1.8049,1.8062,1.8113,1.8116,1.8083,1.8085,1.8087,1.8088,0,0,0,0,0,0,0,1.7874,1.7882,1.796,1.7947,1.795,1.7952,1.7959,1.7993,1.8019,1.7988,1.7988,1.7995,1.8045,1.8059,1.8064,1.8117,1.8083,1.8086,1.8088,1.8089,1.8203,1.8204,0,0,0,0,0,0,1.7868,1.7879,1.7958,1.7962,1.7911,1.7955,1.7962,1.798,1.8019,1.8024,1.7996,1.7996,1.8054,1.806,1.8066,1.8113,1.8087,1.809,1.8092,1.8202,1.8203,1.8205,0,0,0,0,0,0,1.7866,1.7875,1.7956,1.7921,1.7931,1.7958,1.7978,1.7982,1.7996,1.8025,1.803,1.8006,1.8053,1.8061,1.81,1.8116,1.8091,1.8094,1.8201,1.8203,1.8204,1.8207,0,0,0,0,0,0,1.7863,1.7874,1.7888,1.7921,1.7933,1.7988,1.7979,1.7984,1.8002,1.8002,1.8035,1.804,1.8053,1.8095,1.8103,1.812,1.8097,1.82,1.8202,1.8204,1.8206,1.8209,1.8211,0,0,0,0,0,1.7859,1.7886,1.7889,1.7898,1.7951,1.7989,1.7996,1.801,1.8003,1.8018,1.8037,1.8039,1.8113,1.8098,1.8108,1.8126,1.8199,1.8201,1.8203,1.8205,1.8208,1.8211,0,0,0,0,0,0,1.7854,1.7891,1.7894,1.7933,1.7958,1.799,1.8009,1.8013,1.804,1.8039,1.8057,1.8064,1.8102,1.8118,1.8101,1.8165,1.8155,1.8159,1.8153,1.8156,1.8159,1.8154,1.81,0,0,0,0,0,1.7858,1.7885,1.7916,1.7947,1.7959,1.7982,1.7999,1.8008,1.8034,1.8045,1.8066,1.8092,1.8121,1.814,1.8168,1.8208,1.8216,1.8226,1.8228,1.823,1.8234,1.8258,1.8262,1.8212,1.8212,1.8212,0,0,1.7865,1.7889,1.7905,1.7947,1.7967,1.7995,1.7991,1.802,1.8042,1.8049,1.8087,1.8104,1.8134,1.8173,1.8192,1.8188,1.825,1.8233,1.8235,1.8237,1.8261,1.8265,1.8269,1.8214,1.8214,1.8213,0,0,1.7894,1.7914,1.7943,1.7963,1.7994,1.801,1.8017,1.8049,1.806,1.8098,1.8105,1.8131,1.818,1.8202,1.8219,1.8257,1.8261,1.8266,1.828,1.8303,1.8307,1.8311,1.8325,1.833,1.827,1.827,1.827,0,1.7899,1.7941,1.7957,1.7987,1.8006,1.8015,1.8045,1.8064,1.8103,1.8116,1.8111,1.8174,1.8194,1.824,1.825,1.8263,1.8272,1.8262,1.8305,1.8309,1.8312,1.8326,1.8332,1.827,1.827,1.827,1.827,0,1.7947,1.7977,1.7996,1.8034,1.8055,1.8085,1.8105,1.8125,1.8133,1.8149,1.8188,1.8214,1.8248,1.826,1.8267,1.8307,1.8303,1.8301,1.8292,1.8317,1.8331,1.8336,1.8271,1.827,1.827,1.827,0,0,1.7973,1.802,1.8027,1.8044,1.808,1.8103,1.8134,1.8168,1.8185,1.8211,1.8238,1.8281,1.828,1.8299,1.831,1.833,1.836,1.8326,1.8327,1.8332,1.8406,1.8407,1.8413,1.8363,1.8364,1.8365,1.8403,0,1.8005,1.806,1.8076,1.8122,1.815,1.816,1.8187,1.8212,1.8229,1.8255,1.8273,1.8303,1.8299,1.8312,1.8332,1.8352,1.8375,1.8349,1.8388,1.839,1.838,1.8419,1.842,1.8455,1.8409,1.841,1.841,0,1.805,1.8078,1.8127,1.8161,1.8173,1.8197,1.823,1.8255,1.8284,1.8295,1.8318,1.8327,1.8361,1.835,1.8397,1.8379,1.8396,1.8408,1.841,1.8414,1.8401,1.8425,1.8467,1.8472,1.8418,1.8418,1.8417,0,1.8064,1.8115,1.8151,1.8166,1.8205,1.8222,1.824,1.8268,1.8288,1.8317,1.833,1.8362,1.838,1.8405,1.8423,1.8414,1.8469,1.8459,1.8479,1.8479,1.849,1.8489,1.8535,1.8501,1.8501,1.8501,1.8501,0,1.8099,1.8129,1.8158,1.818,1.8215,1.8233,1.8267,1.8285,1.831,1.8337,1.8348,1.8372,1.8395,1.8423,1.8437,1.8474,1.8482,1.8492,1.8496,1.8491,1.849,1.8502,1.85,1.8502,1.8502,1.8502,1.8501,0,1.812,1.8141,1.8181,1.8216,1.8226,1.8249,1.828,1.8302,1.8319,1.8353,1.8362,1.8389,1.8423,1.8443,1.8486,1.8496,1.8537,1.8539,1.8527,1.8528,1.8547,1.8545,1.8603,1.8612,1.8571,1.8572,1.8572,0,1.8141,1.8164,1.8202,1.822,1.8238,1.8268,1.8288,1.8308,1.8329,1.8365,1.8383,1.8418,1.8446,1.85,1.8524,1.8557,1.856,1.8579,1.8565,1.8561,1.8561,1.8559,1.8562,1.858,1.8581,1.8581,1.8581,0,1.8175,1.8185,1.8214,1.8247,1.8271,1.8298,1.8325,1.8339,1.8364,1.8387,1.8422,1.8444,1.8488,1.8523,1.8558,1.8577,1.8583,1.8586,1.8592,1.8587,1.8579,1.8584,1.8533,1.8584,1.8584,1.8583,1.8583,1.8583,1.8197,1.8219,1.8249,1.8281,1.8304,1.8329,1.8352,1.8373,1.8402,1.8439,1.845,1.8486,1.8516,1.8565,1.8584,1.8614,1.8611,1.862,1.8623,1.8624,1.8625,1.8575,1.862,1.862,1.862,1.862,1.862,0,1.8232,1.8253,1.8282,1.832,1.8345,1.835,1.838,1.8402,1.8434,1.8461,1.849,1.853,1.8564,1.8591,1.8626,1.8645,1.8649,1.8653,1.8652,1.8656,1.8625,1.8616,1.8649,1.8649,1.8649,1.8649,1.8649,1.8649,1.8253,1.8291,1.8304,1.8353,1.8373,1.8409,1.8426,1.845,1.8472,1.8517,1.8546,1.8563,1.8591,1.8628,1.866,1.8667,1.868,1.8684,1.8691,1.8662,1.8658,1.8655,1.8647,1.8686,1.8686,1.872,1.8721,1.8721]},{"header":{"parameterUnit":"m.s-1","parameterCategory":1,"la1":30.2991,"la2":30.254,"lo1":-89.0895,"lo2":-89.0444,"dy":0.0017,"dx":0.0017,"nx":28,"ny":28,"refTime":"2025-03-16T21:00:00:Z","depth":0,"parameterNumber":3,"parameterNumberName":"V-component_of_WINDS"},"data":[0,0,0,0,0,0,0,0,0,0,0,0,0,0,0,0,0,0,0,0,0,0,0,0,0,0,0,0,0,0,0,0,0,0,0,0,0,0,0,0,0,0,0,0,0,0,0,0,0,0,0,0,0,0,0,0,0,0,-3.3203,-3.3204,0,-3.3292,-3.3293,-3.3294,-3.3342,-3.3342,-3.3342,-3.3342,-3.343,-3.3433,-3.3435,0,0,0,0,0,0,0,0,0,0,0,0,0,-3.3072,-3.3075,-3.3203,-3.3204,-3.3205,-3.3292,-3.3293,-3.3294,-3.3342,-3.3342,-3.3342,-3.3342,-3.343,-3.3432,-3.3435,0,0,0,0,0,0,0,0,0,0,0,0,0,-3.3142,-3.3075,-3.3202,-3.3239,-3.3243,-3.3292,-3.3293,-3.3295,-3.3342,-3.3342,-3.3342,-3.3342,-3.3429,-3.3432,-3.3435,-3.3453,0,0,-3.3446,-3.3447,0,0,0,0,0,0,0,0,-3.3138,-3.3147,-3.3233,-3.3237,-3.3242,-3.3306,-3.328,-3.3348,-3.3342,-3.3304,-3.3342,-3.3343,-3.3389,-3.3395,-3.3412,-3.3457,-3.3461,-3.3446,-3.3448,-3.345,-3.345,0,0,0,0,0,0,0,-3.3133,-3.3143,-3.3238,-3.3234,-3.3239,-3.3251,-3.3261,-3.3293,-3.3344,-3.3308,-3.3311,-3.3322,-3.3391,-3.3408,-3.3414,-3.3462,-3.3446,-3.3449,-3.3451,-3.3452,-3.353,-3.353,0,0,0,0,0,0,-3.3123,-3.3139,-3.3235,-3.3241,-3.3189,-3.3253,-3.3265,-3.3285,-3.3344,-3.3354,-3.3321,-3.3323,-3.3403,-3.341,-3.3417,-3.3444,-3.345,-3.3453,-3.3455,-3.353,-3.353,-3.353,0,0,0,0,0,0,-3.312,-3.3131,-3.3231,-3.3191,-3.3205,-3.3255,-3.3278,-3.3287,-3.3304,-3.3355,-3.3364,-3.3329,-3.3403,-3.3413,-3.3445,-3.3448,-3.3454,-3.3457,-3.353,-3.353,-3.353,-3.3496,0,0,0,0,0,0,-3.3116,-3.3129,-3.3136,-3.3191,-3.3207,-3.3257,-3.3278,-3.3288,-3.331,-3.3314,-3.3365,-3.3373,-3.3404,-3.344,-3.3448,-3.3453,-3.346,-3.353,-3.353,-3.353,-3.3497,-3.3495,-3.3493,0,0,0,0,0,-3.3111,-3.3122,-3.3136,-3.3148,-3.3217,-3.3257,-3.3266,-3.3302,-3.331,-3.3318,-3.3351,-3.3372,-3.3446,-3.3442,-3.3453,-3.3458,-3.353,-3.353,-3.353,-3.3498,-3.3496,-3.3493,0,0,0,0,0,0,-3.3064,-3.3129,-3.3146,-3.3175,-3.3211,-3.3265,-3.3276,-3.3298,-3.3331,-3.3333,-3.3375,-3.3386,-3.3415,-3.344,-3.3434,-3.348,-3.349,-3.3492,-3.3463,-3.3461,-3.3459,-3.3452,-3.3463,0,0,0,0,0,-3.3058,-3.3086,-3.3141,-3.3161,-3.3179,-3.3224,-3.3243,-3.3269,-3.3306,-3.3321,-3.3356,-3.3392,-3.3424,-3.3443,-3.3475,-3.3501,-3.3514,-3.351,-3.3508,-3.3506,-3.3508,-3.3527,-3.3526,-3.353,-3.353,-3.353,0,0,-3.3044,-3.3083,-3.3098,-3.3153,-3.3184,-3.3212,-3.3236,-3.3265,-3.3287,-3.3325,-3.3359,-3.3386,-3.3428,-3.3458,-3.3473,-3.348,-3.351,-3.3507,-3.3505,-3.3507,-3.3527,-3.3526,-3.3526,-3.3531,-3.353,-3.353,0,0,-3.3033,-3.3065,-3.3087,-3.3118,-3.3165,-3.3196,-3.3201,-3.3253,-3.3274,-3.3308,-3.3339,-3.3365,-3.3418,-3.3448,-3.347,-3.3476,-3.3497,-3.3485,-3.3474,-3.3492,-3.3492,-3.3492,-3.3495,-3.3496,-3.3486,-3.3486,-3.3486,0,-3.3009,-3.3055,-3.3095,-3.3123,-3.3148,-3.3186,-3.3209,-3.3237,-3.3291,-3.3307,-3.3314,-3.3384,-3.3415,-3.3454,-3.3456,-3.3472,-3.348,-3.3479,-3.3489,-3.3489,-3.3489,-3.3494,-3.3495,-3.3484,-3.3484,-3.3485,-3.3485,0,-3.3025,-3.3056,-3.3068,-3.3122,-3.3147,-3.3172,-3.3217,-3.3238,-3.3262,-3.3292,-3.3329,-3.3368,-3.341,-3.3421,-3.3443,-3.3464,-3.3467,-3.348,-3.3492,-3.3487,-3.3492,-3.3493,-3.3482,-3.3482,-3.3483,-3.3483,0,0,-3.2985,-3.3064,-3.3068,-3.3094,-3.315,-3.3175,-3.3203,-3.3246,-3.3264,-3.3301,-3.3326,-3.3372,-3.3387,-3.3412,-3.3438,-3.3453,-3.3458,-3.3466,-3.3467,-3.3464,-3.3486,-3.3477,-3.3478,-3.3472,-3.3473,-3.3473,-3.3484,0,-3.2984,-3.3037,-3.3076,-3.3114,-3.3144,-3.3183,-3.3208,-3.3245,-3.3275,-3.3305,-3.3338,-3.3371,-3.3386,-3.3402,-3.3419,-3.3454,-3.3463,-3.3453,-3.3497,-3.3498,-3.3486,-3.348,-3.3469,-3.3476,-3.3485,-3.3486,-3.3486,0,-3.2988,-3.3027,-3.3069,-3.3125,-3.314,-3.3161,-3.3206,-3.3234,-3.3277,-3.3298,-3.3329,-3.3357,-3.3389,-3.3397,-3.3443,-3.3436,-3.3456,-3.3476,-3.3477,-3.3483,-3.3492,-3.3487,-3.3479,-3.3481,-3.3489,-3.3489,-3.3488,0,-3.2958,-3.302,-3.3054,-3.3075,-3.3141,-3.3156,-3.3184,-3.3228,-3.3253,-3.3291,-3.3308,-3.3349,-3.3371,-3.3403,-3.3441,-3.3444,-3.3484,-3.3495,-3.3503,-3.3502,-3.3509,-3.3508,-3.3507,-3.3521,-3.3521,-3.3521,-3.352,0,-3.2953,-3.2977,-3.3042,-3.3063,-3.3092,-3.3137,-3.3165,-3.3196,-3.3236,-3.3264,-3.3299,-3.3324,-3.3374,-3.3406,-3.3436,-3.3471,-3.348,-3.3498,-3.3506,-3.3496,-3.3494,-3.351,-3.3511,-3.3521,-3.3521,-3.3521,-3.3521,0,-3.2923,-3.2967,-3.3007,-3.3068,-3.3084,-3.3103,-3.3155,-3.3177,-3.321,-3.3246,-3.3257,-3.3308,-3.3348,-3.339,-3.3443,-3.3464,-3.3497,-3.3508,-3.3483,-3.3488,-3.3494,-3.3493,-3.3503,-3.3507,-3.3517,-3.3516,-3.3516,0,-3.2917,-3.2938,-3.3002,-3.3024,-3.3052,-3.3087,-3.3113,-3.3159,-3.3185,-3.3239,-3.3255,-3.3298,-3.3334,-3.3396,-3.3438,-3.3479,-3.3492,-3.3493,-3.3498,-3.3488,-3.3494,-3.3493,-3.3496,-3.3491,-3.349,-3.349,-3.349,0,-3.2903,-3.2925,-3.2962,-3.3008,-3.3039,-3.3076,-3.3115,-3.3131,-3.3185,-3.3212,-3.3255,-3.3283,-3.334,-3.3382,-3.343,-3.3458,-3.3483,-3.3488,-3.3492,-3.3482,-3.3468,-3.3478,-3.3479,-3.3487,-3.3488,-3.3488,-3.3488,-3.3488,-3.2886,-3.2908,-3.2957,-3.2998,-3.3033,-3.307,-3.3095,-3.3133,-3.3169,-3.322,-3.3244,-3.3287,-3.3333,-3.34,-3.3429,-3.3463,-3.347,-3.3475,-3.3477,-3.3478,-3.3477,-3.3462,-3.3471,-3.3471,-3.3472,-3.3472,-3.3472,0,-3.2876,-3.291,-3.2948,-3.3003,-3.3036,-3.3059,-3.3104,-3.313,-3.3167,-3.3209,-3.3246,-3.3296,-3.3338,-3.3385,-3.343,-3.3449,-3.3462,-3.3459,-3.3459,-3.3466,-3.3466,-3.3459,-3.3449,-3.3449,-3.3449,-3.3449,-3.3449,-3.3449,-3.2874,-3.2912,-3.294,-3.2997,-3.3031,-3.3075,-3.3099,-3.3134,-3.3168,-3.3223,-3.3259,-3.329,-3.3334,-3.3384,-3.3424,-3.3437,-3.3453,-3.3447,-3.3464,-3.3463,-3.3465,-3.3467,-3.346,-3.345,-3.345,-3.346,-3.346,-3.346]}]]